Le nostre stazioni meteo in Italia

Pubblicità
Il mio iltempo24.it
Paganella, Italia (16022): Temperatura & dewpoint: 02.04.2020 00:00:00 - 08.04.2020 00:00:00 (CEST)Paganella, Italia (16022): velocità del vento: 02.04.2020 00:00:00 - 08.04.2020 00:00:00 (CEST)Paganella, Italia (16022): direzione del vento: 02.04.2020 00:00:00 - 08.04.2020 00:00:00 (CEST)Paganella, Italia (16022): visibility: 02.04.2020 00:00:00 - 08.04.2020 00:00:00 (CEST)Paganella, Italia (16022): ore di luce: 02.04.2020 00:00:00 - 08.04.2020 00:00:00 (CEST)
Data & Tempo tt [°C] td [°C] ff [km/h] ff [kn] dd vv [km] sd [min]
08.04.2020 00:00:00 1,8 -7,0 22 12 S 50 -
07.04.2020 23:00:00 2,6 -5,5 18 10 S 50 -
07.04.2020 22:00:00 3,2 -5,5 18 10 S 50 -
07.04.2020 21:00:00 3,8 -5,1 15 8 S 50 0
07.04.2020 20:00:00 5,2 -5,2 8 4 SO 50 18
07.04.2020 19:00:00 6,2 -5,4 4 2 N 50 60
07.04.2020 18:00:00 6,2 -6,4 5 3 S 50 60
07.04.2020 17:00:00 6,1 -6,2 8 4 ESE 50 60
07.04.2020 16:00:00 6,0 -7,2 5 3 SSO 50 60
07.04.2020 15:00:00 5,9 -6,7 5 3 SSE 50 60
07.04.2020 14:00:00 5,1 -8,7 4 2 N 50 60
07.04.2020 13:00:00 4,6 -6,9 18 10 NNE 50 60
07.04.2020 12:00:00 3,9 -5,8 4 2 NNE 50 60
07.04.2020 11:00:00 3,1 -6,6 8 4 NO 50 60
07.04.2020 10:00:00 3,2 -6,5 11 6 ONO 50 60
07.04.2020 09:00:00 2,9 -6,2 24 13 NO 50 60
07.04.2020 08:00:00 1,9 -5,5 22 12 NO 50 12
07.04.2020 07:00:00 1,0 -5,3 21 11 NNO 50 0
07.04.2020 06:00:00 1,0 -4,8 9 5 N 30 -
07.04.2020 05:00:00 1,0 -4,6 0 0 N 30 -
07.04.2020 04:00:00 1,0 -4,6 0 0 N 30 -
07.04.2020 03:00:00 0,9 -4,9 11 6 S 50 -
07.04.2020 02:00:00 1,0 -5,1 15 8 S 50 -
07.04.2020 01:00:00 1,4 -4,9 11 6 S 50 -
07.04.2020 00:00:00 1,9 -4,4 13 7 S 50 -
06.04.2020 23:00:00 2,4 -5,2 8 4 S 50 -
06.04.2020 22:00:00 2,8 -5,1 5 3 S 50 -
06.04.2020 21:00:00 3,2 -5,7 11 6 S 50 0
06.04.2020 20:00:00 4,0 -7,1 8 4 SSO 50 24
06.04.2020 19:00:00 4,4 -8,7 4 2 N 50 60
06.04.2020 18:00:00 4,2 -8,8 4 2 NNE 50 60
06.04.2020 17:00:00 4,1 -7,7 4 2 SSE 50 60
06.04.2020 16:00:00 4,0 -5,7 8 4 S 50 60
06.04.2020 15:00:00 3,6 -5,6 18 10 S 50 60
06.04.2020 14:00:00 3,0 -4,7 5 3 SSO 50 60
06.04.2020 13:00:00 2,8 -4,6 8 4 SO 50 60
06.04.2020 12:00:00 2,2 -5,0 5 3 E 50 60
06.04.2020 11:00:00 1,3 -4,8 4 2 E 50 60
06.04.2020 10:00:00 1,0 -5,0 0 0 N 50 60
06.04.2020 09:00:00 0,0 -5,8 8 4 SE 50 60
06.04.2020 08:00:00 -1,3 -6,4 5 3 SE 50 12
06.04.2020 07:00:00 -2,8 -7,1 11 6 SSO 50 0
06.04.2020 06:00:00 -2,2 -7,3 18 10 SSO 30 -
06.04.2020 05:00:00 -2,0 -7,5 13 7 SSO 30 -
06.04.2020 04:00:00 -1,8 -7,5 15 8 S 30 -
06.04.2020 03:00:00 -1,1 -8,1 15 8 S 50 -
06.04.2020 02:00:00 -1,0 -8,2 18 10 SSO 50 -
06.04.2020 01:00:00 -1,0 -8,2 18 10 S 50 -
06.04.2020 00:00:00 -0,4 -7,9 22 12 S 50 -
05.04.2020 23:00:00 0,2 -8,5 15 8 S 50 -
05.04.2020 22:00:00 1,5 -9,1 11 6 S 50 -
05.04.2020 21:00:00 1,8 -10,0 8 4 S 50 0
05.04.2020 20:00:00 2,5 -9,4 8 4 SSO 50 24
05.04.2020 19:00:00 3,4 -8,9 11 6 SSO 50 60
05.04.2020 18:00:00 3,4 -8,3 9 5 SO 50 60
05.04.2020 17:00:00 3,5 -8,2 8 4 SO 50 60
05.04.2020 16:00:00 3,0 -8,7 9 5 SSO 50 60
05.04.2020 15:00:00 3,0 -6,9 9 5 S 50 60
05.04.2020 14:00:00 2,6 -5,8 11 6 SSO 30 60
05.04.2020 13:00:00 2,0 -3,7 9 5 SO 30 60
05.04.2020 12:00:00 1,0 -3,7 0 0 N 30 60
05.04.2020 11:00:00 -0,1 -4,2 0 0 N 25 60
05.04.2020 10:00:00 -1,1 -3,6 4 2 NO 20 60
05.04.2020 09:00:00 -1,5 -3,7 8 4 NNO 20 60
05.04.2020 08:00:00 -2,2 -3,9 11 6 NNE 20 0
05.04.2020 07:00:00 -2,7 -4,7 13 7 NNE 20 0
05.04.2020 06:00:00 -2,4 -4,6 15 8 N 20 -
05.04.2020 05:00:00 -2,0 -5,1 8 4 N 20 -
05.04.2020 04:00:00 -1,9 -5,4 0 0 N 20 -
05.04.2020 03:00:00 -1,4 -5,1 4 2 SSO 40 -
05.04.2020 02:00:00 -1,4 -5,3 4 2 S 40 -
05.04.2020 01:00:00 -1,1 -5,0 8 4 S 40 -
05.04.2020 00:00:00 -1,0 -4,9 4 2 S 40 -
04.04.2020 23:00:00 -0,6 -5,4 5 3 S 40 -
04.04.2020 22:00:00 1,0 -7,3 4 2 N 40 -
04.04.2020 21:00:00 1,2 -7,8 8 4 N 40 0
04.04.2020 20:00:00 1,8 -7,0 4 2 N 40 18
04.04.2020 19:00:00 2,1 -5,3 4 2 N 30 60
04.04.2020 18:00:00 2,0 -4,1 4 2 SSO 30 60
04.04.2020 17:00:00 2,2 -5,0 8 4 SO 30 60
04.04.2020 16:00:00 1,8 -3,7 8 4 SO 30 60
04.04.2020 15:00:00 1,2 -4,4 0 0 N 30 60
04.04.2020 14:00:00 0,8 -4,4 5 3 SO 30 60
04.04.2020 13:00:00 0,1 -5,3 9 5 SSO 30 60
04.04.2020 12:00:00 -0,3 -5,5 4 2 S 30 60
04.04.2020 11:00:00 -0,9 -5,7 5 3 SE 40 60
04.04.2020 10:00:00 -1,3 -5,7 9 5 SSO 30 60
04.04.2020 09:00:00 -1,5 -6,6 5 3 E 40 60
04.04.2020 08:00:00 -1,8 -7,5 4 2 E 40 6
04.04.2020 07:00:00 -2,5 -8,0 8 4 N 30 0
04.04.2020 06:00:00 -2,7 -8,0 8 4 N 30 -
04.04.2020 05:00:00 -2,7 -7,2 9 5 NNO 30 -
04.04.2020 04:00:00 -2,7 -6,5 9 5 NNO 30 -
04.04.2020 03:00:00 -2,6 -6,2 9 5 N 40 -
04.04.2020 02:00:00 -2,4 -6,6 11 6 N 40 -
04.04.2020 01:00:00 -1,8 -6,0 11 6 N 40 -
04.04.2020 00:00:00 -1,8 -6,9 4 2 N 40 -
03.04.2020 23:00:00 -1,9 -5,7 0 0 N 30 -
03.04.2020 22:00:00 -1,2 -8,6 8 4 S 40 -
03.04.2020 21:00:00 -0,2 -8,4 0 0 N 40 0
03.04.2020 20:00:00 0,2 -8,0 4 2 SSO 50 12
03.04.2020 19:00:00 0,8 -7,2 5 3 SSO 50 60
03.04.2020 18:00:00 1,0 -7,7 4 2 SSO 40 60
03.04.2020 17:00:00 0,9 -8,1 8 4 SSE 40 60
03.04.2020 16:00:00 0,8 -7,4 11 6 SSO 50 18
03.04.2020 15:00:00 -0,1 -7,4 4 2 N 50 30
03.04.2020 14:00:00 -0,9 -8,8 4 2 N 50 18
03.04.2020 13:00:00 -1,1 -8,3 0 0 N 50 60
03.04.2020 12:00:00 -2,0 -8,9 8 4 NNE 50 60
03.04.2020 11:00:00 -2,3 -8,2 8 4 N 50 60
03.04.2020 10:00:00 -2,9 -8,5 18 10 NNO 50 60
03.04.2020 09:00:00 -3,4 -8,5 18 10 NNO 50 60
03.04.2020 08:00:00 -3,7 -8,4 21 11 NO 50 6
03.04.2020 07:00:00 -4,0 -8,3 21 11 NNO 50 0
03.04.2020 06:00:00 -3,9 -8,4 22 12 N 40 -
03.04.2020 05:00:00 -3,9 -8,4 15 8 N 40 -
03.04.2020 04:00:00 -3,8 -9,6 11 6 N 40 -
03.04.2020 03:00:00 -3,2 -8,8 8 4 S 50 -
03.04.2020 02:00:00 -3,0 -8,3 4 2 N 40 -
03.04.2020 01:00:00 -3,0 -9,3 4 2 N 50 -
03.04.2020 00:00:00 -2,6 -9,7 4 2 N 50 -
02.04.2020 23:00:00 -2,4 -9,1 0 0 N 50 -
02.04.2020 22:00:00 -2,6 -10,2 4 2 S 50 -
02.04.2020 21:00:00 -2,2 -7,7 5 3 S 50 0
02.04.2020 20:00:00 -1,5 -9,1 11 6 SSO 50 24
02.04.2020 19:00:00 0,0 -9,7 4 2 SSO 50 60
02.04.2020 18:00:00 -0,2 -10,7 4 2 SSO 50 60
02.04.2020 17:00:00 -0,4 -9,0 5 3 S 50 60
02.04.2020 16:00:00 -0,4 -9,3 8 4 SSO 50 60
02.04.2020 15:00:00 -0,8 -7,0 4 2 S 50 60
02.04.2020 14:00:00 -1,2 -6,9 4 2 N 50 60
02.04.2020 13:00:00 -1,8 -10,1 4 2 NNE 50 60
02.04.2020 12:00:00 -2,0 -10,8 9 5 N 50 60
02.04.2020 11:00:00 -3,0 -13,0 11 6 NNO 50 60
02.04.2020 10:00:00 -2,2 -16,7 11 6 NNO 50 60
02.04.2020 09:00:00 -2,4 -15,8 0 0 N 50 60
02.04.2020 08:00:00 -3,1 -12,3 8 4 N 50 12
02.04.2020 07:00:00 -5,1 -9,5 11 6 N 50 0
02.04.2020 06:00:00 -5,0 -8,7 8 4 N 30 -
02.04.2020 05:00:00 -5,1 -9,9 8 4 N 30 -
02.04.2020 04:00:00 -5,5 -8,9 0 0 N 30 -
02.04.2020 03:00:00 -5,0 -8,2 4 2 S 30 -
02.04.2020 02:00:00 -5,4 -9,5 4 2 S 40 -
02.04.2020 01:00:00 -4,2 -9,6 0 0 N 40 -
02.04.2020 00:00:00 -4,0 -9,0 4 2 N 40 -

tt = Temperatura
td = dewpoint
ff = velocità del vento
dd = direzione del vento
vv = visibility
sd = ore di luce

Stazioni seguenti

WeatherPro
AMSI
MeteoEarth